CAPE
0 0 0 0 0 0 0 0 0 0 0 0 0 0 0 0 0 0 0 0 0 0 0 0 0 0 0 0 0 1 0 0 0 0 335 356 314 328 417 466 492 520 561 681 809 985 1170 1251 1356 1494 1609 1668 1697 1720 1769 1889 2120 2517 2831 3032 3204 3296 3254 3163 3070 3006 2967 2955 2928 2893 2837 2781 2718 2645 2594 2611 2617 2612 2671 2726 2703 2634 2532 2410 2310 2188 2046
0 0 0 0 0 0 0 0 0 0 0 0 0 0 0 0 0 0 0 0 0 0 0 0 0 0 0 0 37 155 99 15 86 146 122 209 283 326 326 372 457 506 517 599 803 967 1111 1208 1286 1419 1536 1623 1680 1707 1732 1822 1979 2255 2608 2904 3117 3282 3338 3290 3186 3082 3037 3000 2962 2915 2858 2767 2696 2642 2584 2581 2598 2593 2623 2710 2750 2726 2648 2539 2421 2293 2139
0 0 0 0 0 0 0 0 0 0 0 0 0 0 0 0 0 0 0 0 0 0 0 0 0 0 13 0 1 48 112 337 341 220 108 116 242 219 247 256 300 361 538 662 767 908 1072 1194 1251 1321 1461 1590 1656 1689 1709 1744 1886 2074 2366 2716 2974 3180 3326 3347 3310 3201 3116 3066 2988 2949 2881 2801 2724 2652 2588 2566 2560 2568 2598 2658 2726 2747 2725 2653 2553 2433 2294
0 0 0 0 0 0 0 0 0 0 0 0 0 0 0 0 0 0 0 0 0 0 0 0 0 0 0 0 0 6 225 612 520 102 149 237 247 279 301 344 398 441 572 725 792 847 1015 1193 1227 1244 1346 1525 1640 1710 1728 1735 1787 1906 2184 2504 2796 3026 3200 3304 3358 3324 3240 3156 3069 3002 2929 2880 2828 2759 2673 2608 2564 2532 2553 2604 2673 2748 2726 2694 2639 2555 2459
0 0 0 0 0 0 0 0 0 0 0 0 0 0 0 0 0 0 0 0 0 0 0 0 0 0 0 0 0 0 37 868 874 458 412 436 387 368 400 471 515 544 638 782 938 1040 1160 1242 1292 1282 1259 1346 1548 1701 1761 1783 1754 1750 1980 2315 2638 2885 3071 3265 3386 3382 3326 3248 3182 3081 3000 2953 2917 2885 2812 2736 2655 2582 2552 2596 2666 2726 2743 2734 2709 2648 2573
0 0 0 0 0 0 0 0 0 0 0 0 0 0 0 0 0 0 0 0 0 0 0 0 0 0 0 0 0 0 214 765 1052 723 633 600 595 537 543 592 605 630 740 847 994 1132 1319 1442 1423 1441 1395 1412 1539 1682 1794 1836 1796 1769 1812 2069 2467 2789 3030 3289 3445 3455 3408 3328 3243 3166 3094 3036 2999 2983 2928 2870 2797 2727 2661 2644 2685 2747 2774 2772 2743 2704 2662
0 0 0 0 0 0 0 0 0 0 0 0 0 768 792 657 12 0 0 0 0 0 0 0 0 0 110 414 630 450 215 493 988 1168 1240 1072 681 669 698 714 684 716 794 891 976 1078 1238 1585 1718 1618 1540 1530 1612 1702 1812 1876 1893 1903 1864 1950 2254 2673 2995 3317 3521 3551 3501 3432 3351 3276 3189 3114 3065 3068 3035 2989 2951 2901 2839 2786 2773 2806 2839 2845 2827 2806 2747
2 1 0 0 0 0 0 0 0 0 0 2 476 828 736 746 482 0 0 15 10 0 0 0 0 24 670 856 923 782 817 385 110 1051 1584 1572 1131 1088 1092 916 848 785 788 860 945 1060 1249 1625 1969 1888 1781 1738 1751 1770 1789 1890 1964 1987 1995 1993 2175 2554 2921 3239 3544 3646 3592 3518 3473 3408 3333 3252 3159 3144 3140 3108 3081 3060 3004 2960 2929 2908 2882 2888 2912 2888 2864
0 1 4 0 0 0 0 0 7 5 0 0 197 689 776 760 742 165 181 564 637 468 158 32 0 0 711 1084 1325 1379 1523 1756 1591 800 679 1475 1728 1373 1366 1448 1423 1335 1029 797 820 1143 1535 1682 1953 2149 2086 1988 1963 2004 1992 2012 2090 2120 2098 2078 2161 2450 2799 3083 3434 3675 3677 3606 3560 3524 3482 3407 3281 3196 3222 3232 3208 3197 3150 3106 3072 3044 3035 3021 3000 2989 2962
1 0 10 9 1 0 0 15 101 12 1 1 656 783 920 1198 1146 1163 1343 1230 984 775 510 282 11 0 274 1265 1698 1850 1844 1949 2192 2321 2248 1683 587 310 537 1426 1573 1729 1912 1849 1591 1513 1898 2267 2166 2177 2202 2160 2156 2211 2264 2266 2285 2320 2274 2238 2238 2375 2655 2916 3222 3592 3750 3718 3661 3614 3570 3497 3389 3272 3282 3320 3333 3304 3281 3264 3232 3220 3190 3172 3165 3155 3133
2 1 8 17 0 0 64 215 12 243 572 793 642 680 812 1097 1284 1198 1192 1142 1080 1032 948 730 122 92 945 1608 1913 2024 1791 1902 2160 2220 2568 2881 2828 1875 773 29 32 878 1556 1997 2165 2101 2016 2392 2906 2855 2726 2483 2312 2332 2420 2466 2462 2479 2461 2436 2391 2382 2543 2774 3022 3457 3767 3812 3760 3681 3606 3550 3440 3320 3335 3398 3409 3402 3412 3376 3353 3337 3338 3341 3339 3327 3323
2 2 3 17 4 606 331 138 69 610 634 252 233 371 658 939 1138 1054 1035 1060 916 862 934 1142 1360 897 1112 1867 2160 2187 1924 1922 2105 2203 2493 2786 3104 3210 3103 1750 918 659 820 1562 1990 2327 2294 2201 2598 3291 3209 2967 2697 2505 2468 2495 2516 2532 2568 2599 2598 2543 2516 2621 2879 3328 3718 3824 3815 3752 3673 3580 3499 3402 3436 3464 3464 3479 3501 3500 3486 3472 3450 3468 3465 3473 3462
13 1 0 53 370 575 596 122 91 60 40 0 44 114 793 962 1069 1013 881 872 1115 1250 1194 1138 1455 1882 2147 2148 2092 1951 1717 1834 1951 2163 2554 3009 3063 2819 2790 2936 2948 1617 1026 1372 2055 2276 2371 2387 2288 2744 3360 3327 3092 2853 2688 2580 2557 2577 2600 2643 2670 2651 2640 2644 2797 3274 3662 3835 3876 3843 3752 3669 3614 3534 3568 3575 3573 3570 3599 3635 3626 3584 3567 3606 3626 3644 3653
24 8 0 22 519 511 212 144 93 44 3 3 12 804 822 1339 1640 1722 1620 1507 1536 1517 1519 1628 1664 1624 1473 1469 1614 1624 1505 1549 1750 1876 2121 2726 3108 3052 3090 3219 3463 3151 2443 2118 1594 2350 2627 2398 2450 2476 2876 3329 3296 3162 2969 2792 2715 2685 2678 2643 2612 2625 2669 2725 2964 3429 3773 3918 3948 3958 3907 3824 3766 3740 3720 3698 3700 3722 3760 3775 3740 3707 3693 3690 3666 3634 3573
185 219 4 80 402 446 300 223 154 238 104 589 734 1233 1572 1620 1598 1614 1533 1490 1320 1294 1321 1301 1317 1355 1320 1413 1594 1497 1472 1516 1550 1575 1735 1971 2573 3188 3213 3224 3704 3479 3697 3425 3033 2993 3209 3482 3428 3245 3041 3099 3307 3374 3194 3032 2942 2835 2742 2694 2669 2659 2781 3100 3459 3792 3969 4035 4062 4063 4035 3947 3902 3902 3889 3859 3884 3899 3883 3887 3864 3824 3824 3788 3723 3657 3568
342 428 410 358 586 272 274 336 158 322 367 961 1381 1415 1456 1376 1402 1347 1282 1207 1233 1189 1247 1160 1206 1228 1137 1204 1355 1175 1455 1731 1494 1298 1447 1682 2046 2343 3290 3483 3454 3800 3989 3846 3877 3921 3817 3805 3828 3749 3479 3284 3228 3258 3339 3315 3248 3149 3195 3407 3462 3494 3492 3712 3926 4068 4126 4123 4142 4140 4094 4042 4028 4029 4031 4063 4071 4046 4011 4004 3990 3964 3908 3840 3749 3630 3501
235 303 414 412 634 584 514 455 543 753 1118 1410 1416 1336 1248 1169 1028 1041 1077 1041 1067 1098 1063 1150 1104 1073 1376 1379 1394 1188 1526 1663 1587 1555 1442 1566 1632 1936 2633 3488 3527 3393 3750 3978 3886 3795 3959 4025 4017 4029 3916 3694 3516 3443 3384 3569 3785 4022 4189 4210 4144 4023 3980 4053 4110 4169 4212 4222 4225 4210 4169 4160 4126 4123 4211 4230 4210 4169 4147 4116 4068 3973 3894 3769 3688 3536 3373
222 355 564 447 563 647 754 897 907 1041 1196 1059 1000 982 824 819 803 765 770 813 842 882 939 995 1066 1223 1371 1327 1298 1407 1320 1357 1409 1662 1577 1566 1625 1622 1996 2765 3509 3560 3349 3265 3650 3798 3768 3922 4146 4155 4156 4020 3920 3696 3964 4231 4399 4457 4450 4420 4312 4219 4164 4158 4163 4180 4261 4327 4316 4291 4272 4223 4224 4285 4321 4260 4229 4218 4146 4090 3971 3848 3754 3621 3516 3398 3385
166 352 578 706 678 762 757 735 878 907 834 772 748 643 637 662 660 656 691 752 754 845 937 948 1030 1210 1149 1182 1293 1272 1214 1190 1318 1554 1702 1732 1738 1736 1849 2050 2524 3202 3348 3265 3059 2970 3055 3540 3955 4272 4274 4276 4212 4128 4330 4541 4589 4556 4512 4459 4367 4326 4336 4302 4258 4245 4283 4346 4380 4326 4260 4327 4405 4385 4280 4196 4169 4114 3932 3750 3630 3555 3494 3369 3276 3236 3214
81 157 183 428 732 728 676 643 593 658 604 604 622 602 469 538 492 533 522 522 553 617 713 783 825 883 895 970 1045 1029 1091 1241 1280 1538 1660 1770 1771 1820 1924 2110 2316 2652 2877 2934 2846 2689 2552 2836 3207 3579 3985 4269 4318 4271 4175 4382 4626 4630 4560 4474 4475 4442 4414 4402 4320 4268 4330 4428 4462 4431 4469 4438 4350 4242 4111 4067 3874 3615 3508 3502 3482 3436 3452 3418 3230 3106 2993
63 10 185 283 751 782 665 584 487 471 515 558 559 524 482 506 473 422 383 404 504 563 619 705 753 784 950 902 833 928 1107 1196 1289 1501 1674 1922 2020 2152 2214 2204 2200 2338 2566 2621 2682 2696 2596 2522 2678 2994 3394 3486 3681 3954 4045 3973 4217 4335 4459 4559 4414 4319 4311 4037 4135 4156 4252 4467 4471 4439 4247 3974 4026 4047 3962 3696 3038 3106 3221 3245 3263 3289 3296 3234 3152 3034 2879
217 74 79 36 543 625 617 508 530 518 461 545 578 584 564 468 398 399 456 530 530 594 640 707 746 804 865 900 950 901 1020 1096 1288 1532 1648 1764 2033 2324 2481 2487 2364 2295 2443 2550 2610 2701 2566 2452 2556 2758 2979 3290 3248 3299 3393 3664 3782 4060 4121 4192 4254 4039 3678 3499 3628 3694 3683 4042 3924 3957 3876 3795 3749 3482 2990 2730 2870 3032 3133 3192 3220 3190 3126 3027 2923 2782 2553
295 290 236 275 343 514 519 518 529 542 481 488 508 462 406 414 466 470 497 543 584 612 676 676 723 792 834 906 1014 1025 926 1041 1093 1175 1285 1238 1365 1528 1869 2094 2274 2380 2507 2661 2832 2961 2924 2714 2650 2609 2659 2729 3145 3380 3351 3693 4001 4041 3658 3388 3124 3044 2956 2430 1922 2146 2546 3055 3243 3298 3226 3110 2863 2605 2654 2788 2859 2947 3059 3080 3070 2950 2766 2616 2472 2318 2097
727 474 133 170 187 348 382 436 358 424 465 379 375 471 573 660 679 684 692 660 656 690 701 725 750 772 790 857 880 955 1045 1112 1158 1163 1205 1198 1199 1187 1180 1232 1470 1790 1892 2294 2453 2504 2716 2811 2637 2581 2613 2543 2636 3064 3356 3752 3666 3658 3577 2970 2093 1500 1951 1818 1769 2004 1936 2381 2421 2480 2270 2284 2382 2504 2560 2618 2621 2604 2554 2574 2461 2281 2106 1899 1766 1695 1612
698 570 411 256 187 58 2 90 258 275 152 113 411 487 573 614 684 709 751 748 755 754 748 776 798 826 882 903 958 1006 1026 1031 1130 1199 1303 1393 1402 1443 1273 1122 1019 1054 1207 1357 1448 1428 1293 1387 1542 1884 2241 2108 2144 2191 2021 2128 2367 2728 2776 2037 1835 1714 1675 1121 1387 1430 1616 1698 1758 1965 2111 2204 2328 2391 2387 2377 2345 2134 1972 1954 1843 1725 1660 1546 1490 1472 1426
724 423 394 307 216 150 181 99 220 119 98 59 346 423 510 651 740 853 827 869 836 822 822 784 806 848 900 948 1003 1047 1036 1044 1077 1097 1192 1331 1398 1386 1398 1401 1426 1446 1432 1447 1486 1572 1637 1711 1701 1661 1701 1733 1540 1364 1142 1606 1576 1513 1498 1277 1044 1070 1208 1350 1413 1603 1700 1744 1850 2012 2107 2204 2248 2238 2213 2138 1894 1608 1591 1513 1453 1416 1361 1311 1309 1266 1179
639 431 365 303 270 72 152 251 193 89 83 148 19 142 41 458 624 789 814 863 878 878 850 788 760 782 788 808 854 856 823 825 906 1018 1037 1075 1128 1164 1202 1307 1343 1455 1636 1608 1514 1527 1521 1326 1132 1353 1371 1145 908 826 914 1050 1219 997 1060 1118 1165 1370 1648 1782 1808 1813 1866 1930 2020 2010 1986 1909 1817 1790 1762 1680 1408 1352 1369 1316 1280 1222 1153 1142 1093 1028 949
482 463 117 293 270 223 64 44 70 47 46 41 1 2 0 2 69 59 428 582 770 805 842 766 768 699 672 622 672 802 729 692 512 745 849 924 964 947 1061 1038 1028 1157 1265 1288 1384 1448 1412 1365 1459 1559 1529 1315 1177 1050 1403 1460 1539 1534 1695 1816 1847 1867 1844 1792 1704 1678 1627 1576 1563 1487 1371 1274 1240 1244 1262 1248 1218 1267 1251 1190 1061 961 908 919 851 817 777
330 389 292 141 50 29 0 0 0 0 0 0 0 0 0 0 0 0 0 0 0 0 373 488 545 575 540 498 440 476 560 622 451 286 438 505 537 760 1073 1137 1141 1257 1232 1117 1120 1135 1124 1159 1135 867 816 933 1416 1580 1675 1733 1726 1946 2008 2039 2020 1950 1894 1829 1656 1522 1459 1356 1275 1233 1181 1126 1143 1157 1115 1119 1081 1026 978 951 827 758 714 705 731 699 656
293 258 106 46 77 41 0 0 0 0 0 0 8 3 0 0 0 0 0 0 0 0 0 0 0 8 0 0 8 9 240 245 282 134 85 34 0 236 432 802 954 937 958 948 1060 1116 1019 937 969 868 1031 1238 1496 1581 1480 1584 1630 1639 1685 1723 1670 1597 1531 1541 1523 1498 1446 1412 1302 1095 1023 1010 1060 995 950 881 788 711 762 790 768 712 638 643 592 527 516
189 154 22 2 16 104 146 128 24 0 0 0 1 0 0 0 0 0 0 0 0 0 0 0 0 0 0 0 0 0 0 0 0 0 0 63 13 0 0 0 200 710 819 829 895 899 853 926 1046 987 888 948 1233 1537 1654 1652 1606 1543 1494 1463 1426 1394 1367 1356 1383 1337 1268 1173 1079 956 922 896 851 723 673 638 517 238 540 555 558 572 570 562 573 408 0
8 63 16 15 1 0 5 0 0 3 0 1 0 0 0 0 0 0 0 0 0 0 0 0 0 0 0 0 0 0 0 0 0 0 0 0 0 0 5 54 253 431 638 661 552 378 412 512 597 777 856 744 666 862 1272 1484 1504 1467 1334 1162 999 875 822 807 790 818 842 818 737 680 596 490 363 317 303 122 0 0 0 0 0 124 0 266 275 0 0
30 16 15 16 13 2 8 11 2 6 7 7 0 2 0 0 0 0 0 0 0 0 0 0 0 0 0 0 0 0 0 0 0 0 0 0 0 0 2 10 0 109 458 537 455 346 284 380 507 638 709 746 711 650 674 950 1317 1236 1046 741 745 645 573 511 535 650 712 675 594 561 526 461 49 0 0 0 102 19 0 0 0 0 0 0 0 0 0
50 46 48 41 31 15 3 8 2 2 2 0 0 0 0 3 0 0 0 1 1 1 0 0 0 0 0 0 0 0 0 0 0 0 0 0 0 0 0 0 0 0 0 166 434 323 317 349 418 378 511 634 593 651 670 651 858 1188 1174 1004 834 734 524 388 335 404 527 625 681 673 647 452 288 2 59 68 0 0 0 46 237 0 0 0 0 0 0
49 65 74 80 58 59 66 31 21 18 1 0 0 0 0 2 0 0 0 0 0 0 0 1 3 1 0 0 0 0 0 0 0 0 0 0 0 0 8 12 1 0 0 0 0 39 0 30 571 334 150 261 276 395 434 540 675 798 938 957 834 786 669 534 421 342 368 411 430 394 368 312 294 360 362 339 312 278 229 169 135 0 0 0 0 0 0
53 27 19 5 5 9 28 3 3 2 1 0 0 0 0 2 6 4 5 1 5 9 3 0 0 0 0 0 0 0 0 0 0 2 10 16 0 0 0 9 16 3 0 0 0 7 27 4 949 972 482 414 266 125 118 206 268 484 471 374 398 615 556 547 570 480 352 360 323 273 256 124 82 321 451 439 369 356 291 267 227 68 0 0 0 157 205
28 18 19 23 38 33 22 5 3 0 0 0 0 0 0 0 0 0 0 0 0 0 0 0 0 0 0 8 12 19 25 26 18 12 12 12 9 0 0 0 0 0 1 1 0 0 267 436 965 850 440 213 256 332 377 415 30 269 253 370 511 591 549 527 372 357 329 486 400 439 400 370 287 318 401 526 560 459 403 312 185 75 0 0 22 17 0
3 1 10 28 0 2 3 13 18 14 6 0 0 2 2 0 0 0 0 0 0 0 0 0 0 0 0 10 10 14 18 19 14 9 3 10 12 8 0 0 0 0 0 0 0 13 63 297 288 124 272 236 189 266 756 1515 637 214 114 209 492 659 529 363 219 268 400 518 562 544 500 466 312 325 420 469 494 411 324 309 244 100 0 0 0 0 0
2 2 0 1 2 22 18 15 13 7 1 0 0 0 4 4 0 0 0 0 1 1 0 0 0 0 0 0 0 7 14 17 16 19 17 8 3 0 2 5 13 27 33 37 46 56 73 99 105 86 73 81 49 271 858 1380 947 84 97 102 195 353 591 436 261 293 378 485 566 630 477 292 171 207 194 342 339 335 294 320 257 4 0 0 0 0 0
2 8 6 4 1 2 2 4 4 1 13 13 6 5 6 3 0 0 0 0 2 5 5 5 0 0 0 0 0 4 8 8 6 9 8 4 15 0 0 0 2 8 16 46 60 54 55 70 88 88 95 96 94 127 496 897 452 281 206 133 186 151 175 276 270 216 209 208 346 399 302 154 183 188 300 287 378 353 346 320 273 199 79 68 0 0 0
2 0 0 0 0 0 9 21 10 19 18 19 13 7 2 0 0 0 0 1 2 13 2 0 0 0 0 0 0 10 14 14 0 0 3 26 42 46 45 32 12 2 0 0 23 60 80 71 59 74 85 92 103 361 99 238 187 210 226 200 181 214 256 220 238 216 190 189 174 107 90 102 128 118 159 308 286 338 240 198 269 207 146 45 2 0 0
0 0 0 0 0 0 0 0 0 0 2 1 1 0 0 3 3 0 0 0 23 58 109 176 289 34 23 12 7 3 0 0 0 0 1 9 46 72 76 80 76 32 31 9 7 14 0 8 52 77 64 108 99 129 176 139 170 188 177 161 174 168 194 220 213 202 200 189 155 140 0 88 97 98 69 86 89 95 122 155 142 55 0 8 0 0 0
10 6 1 0 0 0 0 0 0 0 0 0 0 0 0 1 0 0 0 0 0 0 2 19 62 69 39 36 27 4 0 1 2 0 0 0 0 27 67 100 120 129 153 56 9 6 4 2 41 52 223 187 119 168 114 138 146 133 178 224 208 199 216 232 208 196 168 146 172 131 99 78 64 0 53 35 88 9 44 56 66 0 0 0 0 0 0
18 11 6 0 0 0 0 0 0 0 0 0 0 0 0 0 0 5 0 0 0 0 0 3 6 11 10 12 6 5 6 2 0 0 0 0 0 0 5 150 161 236 222 117 0 0 8 5 0 119 292 334 175 77 69 66 17 43 86 113 100 140 162 173 314 252 211 222 193 138 84 21 0 33 64 74 2 21 8 0 8 0 0 0 0 0 0
16 44 45 13 7 6 2 4 5 1 0 0 0 1 0 0 0 4 2 0 4 3 0 0 0 0 0 0 0 0 0 0 0 0 0 0 0 0 2 80 3 58 61 204 17 5 32 136 73 146 377 376 211 91 0 6 4 18 26 10 2 0 68 73 120 99 101 162 170 41 52 56 107 98 0 0 0 0 0 1 0 0 0 0 0 0 0
0 2 14 97 3 0 0 0 0 1 0 0 0 1 2 0 1 5 4 0 0 0 0 0 0 0 0 0 0 0 0 0 0 0 0 0 47 21 61 110 10 59 61 88 63 115 61 111 137 152 179 156 103 3 0 0 2 0 30 39 36 82 6 0 0 0 0 0 0 0 0 0 0 0 0 0 0 0 0 1 0 0 47 45 31 18 21
4 7 9 8 11 12 9 6 6 3 0 0 0 1 3 2 2 1 2 0 0 0 0 0 0 0 0 0 0 0 0 0 0 0 0 0 0 4 59 65 34 32 26 13 11 0 14 19 84 138 25 18 4 0 0 0 0 0 0 0 0 0 0 2 0 0 0 0 0 0 2 0 0 0 0 0 0 0 0 0 0 0 9 47 49 45 45
3 3 6 6 5 5 3 1 1 0 1 7 4 2 5 8 6 4 5 4 4 1 0 0 0 0 0 0 0 0 0 0 0 0 0 0 0 0 0 1 4 1 0 0 0 0 0 0 0 0 4 2 0 0 0 0 0 0 0 0 0 2 2 0 0 0 0 0 0 0 1 4 3 0 0 0 0 0 0 0 0 0 0 0 0 0 1
0 0 0 0 0 0 0 0 0 0 0 0 2 3 4 4 1 1 1 0 0 4 6 3 0 0 0 0 0 0 0 0 0 0 0 0 0 0 0 2 4 0 0 0 0 0 0 0 0 0 0 0 0 0 0 0 0 0 0 0 0 0 0 0 0 0 2 2 0 0 0 0 0 0 0 0 0 1 2 2 1 0 1 0 0 0 0
1 0 0 0 0 0 0 1 0 0 0 2 1 3 5 1 4 3 1 0 0 2 6 13 9 3 0 0 0 0 0 0 0 0 0 0 0 0 0 0 0 0 0 0 0 0 0 0 0 0 0 0 0 0 0 0 0 0 0 0 0 0 0 0 0 0 19 17 0 0 0 0 0 0 0 0 1 1 0 1 1 0 0 0 0 0 0
4 5 2 1 2 4 5 5 2 0 0 0 0 0 0 0 0 0 0 0 1 1 0 0 0 0 0 0 0 0 0 0 0 0 0 0 0 0 0 0 0 0 0 0 0 0 0 0 0 0 0 0 0 0 0 0 0 0 0 0 0 0 3 0 0 0 0 0 0 0 0 0 0 0 0 0 0 0 0 0 0 0 0 0 0 0 0
0 0 0 1 5 10 9 4 0 0 0 0 0 0 0 0 0 0 0 0 0 0 0 0 0 0 0 0 0 0 0 0 0 0 0 0 0 0 0 0 0 0 0 0 0 0 0 0 0 0 0 0 0 0 0 0 0 0 0 0 0 0 0 0 2 12 8 2 0 0 0 0 0 0 0 0 0 0 0 0 0 0 0 0 0 0 1
Wind_Speed
nan nan nan nan nan nan nan nan nan nan nan nan nan nan nan nan nan nan nan nan nan nan nan nan nan nan nan nan nan nan nan nan nan nan 21 19 19 20 20 19 19 19 23 25 24 22 21 22 22 20 18 16 16 18 21 22 23 22 23 23 22 21 19 17 15 15 15 15 13 12 12 10 8 5 3 4 5 7 6 5 5 6 11 15 17 19 23
nan nan nan nan nan nan nan nan nan nan nan nan nan nan nan nan nan nan nan nan nan nan nan nan nan nan nan nan nan 32 nan nan nan 27 25 21 23 27 27 24 21 19 21 24 25 24 22 24 22 19 17 16 17 20 21 23 23 23 26 24 23 23 22 19 17 17 17 17 16 15 13 11 8 5 5 6 8 7 6 4 5 9 12 16 18 20 24
nan nan nan nan nan nan nan nan nan nan nan nan nan nan nan nan nan nan nan nan nan nan nan nan nan nan nan nan nan nan 28 27 30 32 26 21 22 25 26 26 24 22 22 25 27 26 25 25 25 22 19 18 19 19 21 23 23 25 26 24 23 23 22 20 21 20 19 18 19 17 15 12 10 8 7 9 9 9 8 6 7 11 13 16 18 21 25
nan nan nan nan nan nan nan nan nan nan nan nan nan nan nan nan nan nan nan nan nan nan nan nan nan nan nan nan nan nan 31 30 32 30 25 22 24 25 25 24 24 24 26 29 30 29 27 26 25 24 23 23 24 21 20 19 21 25 26 24 24 23 22 23 25 23 21 21 20 18 17 14 12 11 11 11 10 10 9 8 10 13 14 16 18 22 24
nan nan nan nan nan nan nan nan nan nan nan nan nan nan nan nan nan nan nan nan nan nan nan nan nan nan nan nan nan nan nan 29 30 27 24 25 26 26 26 27 26 26 26 29 31 31 30 27 25 25 27 28 27 24 21 17 21 25 25 24 24 23 24 26 27 25 24 24 21 20 18 17 16 16 14 12 11 10 8 10 14 14 14 17 20 23 27
nan nan nan nan nan nan nan nan nan nan nan nan nan nan nan nan nan nan nan nan nan nan nan nan nan nan nan nan nan nan 28 24 26 28 30 31 29 25 24 26 28 26 27 28 28 29 29 28 27 29 33 32 29 28 26 25 25 24 25 25 25 25 27 27 27 27 27 26 23 21 21 21 20 19 16 13 13 12 12 13 15 14 15 18 21 25 29
nan nan nan nan nan nan nan nan nan nan nan nan nan 47 44 37 nan nan nan nan nan nan nan nan nan nan 46 53 54 54 53 41 32 30 33 35 37 33 29 28 27 28 27 26 25 25 28 31 32 34 36 34 32 31 32 33 32 29 26 26 26 27 28 28 28 28 28 27 25 24 24 23 22 20 18 16 15 15 14 14 15 16 18 20 23 27 31
nan nan nan nan nan nan nan nan nan nan nan nan 52 51 48 45 41 nan nan nan nan nan nan nan nan nan 54 59 58 57 53 51 50 46 39 36 39 38 35 31 30 28 28 29 30 29 30 34 35 36 37 37 37 36 38 38 36 32 30 29 28 29 28 29 29 29 29 28 28 28 27 26 23 21 19 18 16 17 16 16 16 17 18 21 25 29 33
nan nan nan nan nan nan nan nan nan nan nan nan 45 47 48 46 42 41 39 39 40 41 40 nan nan nan 59 60 60 61 59 57 54 53 51 46 41 43 42 42 39 38 36 35 34 35 35 36 38 38 38 41 41 42 42 38 35 33 32 29 29 31 30 30 30 30 29 30 31 31 30 28 24 21 20 18 18 21 19 18 19 19 21 23 27 32 35
nan nan nan nan nan nan nan nan 52 nan nan nan 46 52 46 48 49 45 44 44 42 43 43 42 nan nan 51 52 51 57 61 61 59 57 57 55 50 45 43 44 44 44 43 41 41 42 41 40 39 40 42 44 44 45 42 38 35 34 32 27 27 30 32 32 31 31 30 31 32 33 33 30 25 22 20 20 20 23 22 21 21 22 23 26 29 33 37
nan nan nan nan nan nan nan 45 nan 60 60 53 52 56 49 46 48 48 46 48 45 44 44 41 40 nan 39 39 41 45 52 59 63 60 59 55 51 48 43 nan nan 43 45 45 43 46 46 42 40 42 44 46 46 44 43 40 37 35 34 30 28 28 29 33 34 33 32 32 33 34 33 31 28 23 21 22 23 25 23 24 24 25 26 28 31 33 36
nan nan nan nan nan 56 49 44 nan 53 58 61 59 53 47 50 49 49 50 50 46 45 44 48 50 41 36 37 40 42 44 48 53 58 61 62 60 58 54 48 45 43 43 45 46 47 48 43 42 44 44 46 46 44 41 41 38 36 34 33 33 32 32 35 36 35 33 32 33 34 34 33 30 25 24 26 27 27 26 26 27 28 29 31 33 33 35
nan nan nan nan 61 58 53 48 nan nan nan nan nan 50 46 51 51 50 51 52 50 50 52 47 46 41 38 37 40 44 44 45 48 50 52 55 57 62 63 60 57 52 49 47 43 42 43 43 46 48 50 50 49 48 46 46 42 37 35 36 38 40 40 39 37 35 34 33 34 34 35 34 32 29 28 29 30 30 30 31 32 33 33 32 33 34 36
nan nan nan nan 58 59 57 56 nan nan nan nan nan 60 58 56 57 55 53 55 54 55 54 49 46 44 44 41 42 46 49 49 45 46 46 48 52 57 60 62 64 63 61 59 52 48 47 49 54 57 56 52 51 52 54 51 46 42 40 41 44 45 45 42 40 38 36 35 36 36 36 36 35 32 32 34 34 34 35 35 36 36 35 34 34 34 35
46 50 nan nan 59 61 69 64 61 61 54 51 56 68 68 62 60 60 59 58 56 57 57 54 50 48 49 50 49 50 51 52 51 50 51 50 48 49 54 58 60 61 62 65 66 60 57 57 58 60 62 58 54 55 53 50 48 47 49 47 47 47 48 46 44 42 40 39 39 38 37 36 38 39 40 39 38 39 39 38 39 39 37 36 37 37 38
48 53 52 54 59 61 66 64 61 57 56 52 56 62 69 67 64 63 63 62 59 58 58 58 59 58 56 55 52 51 54 54 53 53 54 54 53 52 51 52 53 54 56 59 63 63 62 65 67 68 66 61 58 58 55 60 61 59 58 56 54 52 50 47 44 44 44 42 41 41 40 40 42 45 44 43 42 41 40 41 42 42 39 38 39 40 40
49 53 53 57 63 64 68 71 73 71 67 61 58 59 61 64 66 64 67 66 63 62 61 61 61 62 62 61 59 59 57 56 56 56 56 56 55 54 52 53 53 54 52 50 53 54 56 57 60 67 71 70 67 62 63 68 67 67 64 62 59 56 54 53 51 49 49 48 45 44 43 43 44 47 48 47 44 42 43 45 45 42 39 40 41 40 40
50 47 53 63 67 73 80 82 78 75 71 67 65 63 60 59 60 61 63 62 63 62 60 63 63 63 62 63 63 63 61 59 57 57 56 57 56 55 54 55 56 54 55 53 52 51 51 51 52 56 62 67 70 71 75 77 77 74 71 68 66 65 66 67 66 63 58 54 51 49 48 47 47 49 51 48 47 47 48 48 47 43 41 42 42 40 39
53 52 64 71 73 74 80 81 80 76 72 71 70 71 66 60 58 60 60 61 60 60 59 59 59 60 59 61 61 60 59 60 60 60 60 58 56 55 55 54 53 56 58 58 57 55 55 54 54 55 59 64 68 70 73 78 81 81 80 78 76 76 75 76 77 71 64 58 56 54 54 54 53 54 53 50 49 50 50 49 47 43 43 44 43 40 40
nan 49 53 59 67 75 77 76 74 70 67 67 68 68 67 65 62 61 59 59 61 57 58 53 56 56 55 56 57 56 58 58 58 59 60 59 57 55 55 54 54 56 61 64 64 63 64 61 60 62 63 63 63 65 69 76 82 85 86 86 85 84 83 84 84 76 66 62 61 58 58 58 57 56 53 50 51 51 49 46 44 42 44 45 42 40 40
nan nan 42 49 57 76 79 74 67 61 57 55 55 57 61 62 64 62 60 59 58 58 55 51 54 58 55 54 54 56 56 57 56 56 57 57 56 53 53 53 55 58 60 63 64 66 66 65 66 68 69 68 69 73 72 72 78 82 84 85 83 84 85 83 81 75 67 64 65 64 64 68 65 59 53 52 53 53 47 43 43 45 46 45 42 41 43
41 nan nan nan 51 59 64 65 61 59 56 54 53 53 55 55 57 57 59 57 56 55 52 51 54 56 54 52 53 57 56 56 57 57 57 55 54 53 51 50 50 52 56 59 61 60 59 60 63 66 68 69 71 74 76 78 78 80 79 80 79 76 77 78 73 68 63 62 64 63 62 62 63 62 65 63 55 51 46 44 46 48 51 46 43 45 46
42 39 41 45 50 55 55 55 60 60 54 50 55 57 56 52 50 50 52 53 53 54 52 51 55 55 55 54 55 59 58 57 57 57 58 56 53 52 52 51 52 53 52 52 53 55 54 51 54 56 60 65 67 69 72 76 78 76 74 76 80 77 72 69 66 65 59 57 57 58 58 62 64 61 58 59 62 57 50 47 50 53 51 51 51 50 50
42 40 38 41 45 48 50 53 58 58 53 47 50 54 54 51 48 46 47 47 49 49 50 52 52 54 54 52 55 58 57 58 60 59 58 57 54 52 53 53 53 53 53 52 51 49 46 45 47 48 52 55 57 63 69 71 74 73 72 72 73 71 67 61 58 54 51 50 53 57 58 59 59 56 55 54 53 56 55 53 55 53 51 51 52 51 52
42 42 44 44 42 nan nan nan 50 51 49 47 50 56 57 53 50 46 45 44 43 46 48 50 49 49 52 52 53 54 55 56 55 56 56 57 56 55 54 55 53 51 49 47 47 46 45 46 47 50 54 55 55 61 68 70 71 71 69 68 68 62 52 42 39 39 43 48 54 56 57 57 54 52 50 51 52 51 52 58 60 59 57 55 54 54 53
50 43 43 45 47 45 43 nan 50 47 nan nan 50 54 57 55 50 48 49 46 46 45 46 46 47 46 47 49 50 52 56 55 53 54 54 54 54 53 52 51 50 49 48 46 45 44 42 44 46 49 54 57 49 39 48 56 65 67 68 65 56 40 29 30 36 42 47 50 52 53 53 54 52 51 50 49 48 50 51 51 56 58 58 57 55 57 56
51 53 51 55 56 nan 48 47 42 nan nan 49 nan 51 nan 50 52 50 49 50 50 49 47 44 42 42 43 45 48 50 53 52 54 52 51 54 53 49 47 46 46 47 47 45 44 42 43 43 45 43 40 36 33 32 37 40 41 45 48 46 41 37 35 37 40 43 46 47 47 48 49 49 49 50 50 49 51 51 49 50 52 52 49 50 52 52 52
52 55 55 54 55 58 nan nan nan nan nan nan nan nan nan nan nan nan 55 54 53 52 51 46 43 43 45 43 44 47 48 54 53 50 52 52 48 45 45 44 42 40 42 44 42 39 38 39 38 39 37 28 19 25 34 30 21 21 28 34 36 38 40 43 43 44 44 43 42 44 46 48 49 50 50 52 53 52 52 52 52 52 52 50 48 50 59
54 54 54 54 nan nan nan nan nan nan nan nan nan nan nan nan nan nan nan nan nan nan 52 49 46 46 46 45 47 48 48 48 52 52 49 48 47 44 41 42 43 43 43 43 40 36 37 36 34 33 32 28 18 22 28 26 23 22 24 29 31 33 36 40 43 42 42 41 42 45 46 47 48 50 51 53 52 51 51 52 52 53 54 51 50 52 55
59 57 53 nan nan nan nan nan nan nan nan nan nan nan nan nan nan nan nan nan nan nan nan nan nan nan nan nan nan nan 49 48 47 46 nan nan nan 42 40 41 47 45 44 42 37 32 34 34 33 29 27 28 33 33 32 30 28 26 25 28 31 34 35 38 40 41 41 42 44 48 47 46 48 49 49 49 49 50 52 53 55 56 54 49 49 52 51
58 55 nan nan nan 59 64 61 nan nan nan nan nan nan nan nan nan nan nan nan nan nan nan nan nan nan nan nan nan nan nan nan nan nan nan nan nan nan nan nan 45 40 38 36 33 30 30 32 32 29 24 29 36 40 40 38 34 31 27 28 32 37 40 40 40 40 41 42 44 46 47 48 49 49 49 49 50 50 51 54 56 56 53 50 50 48 nan
nan nan nan nan nan nan nan nan nan nan nan nan nan nan nan nan nan nan nan nan nan nan nan nan nan nan nan nan nan nan nan nan nan nan nan nan nan nan nan nan 43 40 36 34 33 31 31 32 33 27 25 28 32 35 37 38 34 31 29 29 32 33 35 40 39 41 41 43 44 46 46 48 48 50 52 52 nan nan nan nan nan 54 nan 50 48 nan nan
nan nan nan nan nan nan nan nan nan nan nan nan nan nan nan nan nan nan nan nan nan nan nan nan nan nan nan nan nan nan nan nan nan nan nan nan nan nan nan nan nan 39 36 33 33 32 31 32 31 29 29 29 31 32 34 33 31 29 29 30 32 33 34 36 38 40 42 44 45 45 46 48 nan nan nan nan 53 nan nan nan nan nan nan nan nan nan nan
nan nan nan nan nan nan nan nan nan nan nan nan nan nan nan nan nan nan nan nan nan nan nan nan nan nan nan nan nan nan nan nan nan nan nan nan nan nan nan nan nan nan nan 34 35 36 33 32 33 33 32 31 31 32 33 34 33 32 33 34 36 38 38 39 40 42 43 44 45 47 49 52 53 nan nan nan nan nan nan nan 54 nan nan nan nan nan nan
nan nan nan nan nan nan nan nan nan nan nan nan nan nan nan nan nan nan nan nan nan nan nan nan nan nan nan nan nan nan nan nan nan nan nan nan nan nan nan nan nan nan nan nan nan nan nan nan 33 35 34 33 34 34 35 35 35 36 37 40 41 43 45 44 44 46 47 48 49 49 50 51 52 52 53 53 52 53 56 57 56 nan nan nan nan nan nan
nan nan nan nan nan nan nan nan nan nan nan nan nan nan nan nan nan nan nan nan nan nan nan nan nan nan nan nan nan nan nan nan nan nan nan nan nan nan nan nan nan nan nan nan nan nan nan nan 37 40 35 35 34 35 36 36 36 38 39 41 41 43 45 45 45 46 47 50 50 48 49 52 nan 51 51 52 54 55 57 57 54 nan nan nan nan 31 32
nan nan nan nan nan nan nan nan nan nan nan nan nan nan nan nan nan nan nan nan nan nan nan nan nan nan nan nan nan nan nan nan nan nan nan nan nan nan nan nan nan nan nan nan nan nan 33 33 38 41 36 35 35 33 33 36 nan 36 38 40 42 43 45 45 44 44 42 43 44 44 45 47 48 49 50 51 51 50 49 46 42 nan nan nan nan nan nan
nan nan nan nan nan nan nan nan nan nan nan nan nan nan nan nan nan nan nan nan nan nan nan nan nan nan nan nan nan nan nan nan nan nan nan nan nan nan nan nan nan nan nan nan nan nan nan 41 45 42 40 38 36 34 35 33 37 38 38 40 42 44 46 47 47 47 47 46 43 43 42 41 39 40 42 41 41 38 36 33 31 nan nan nan nan nan nan
nan nan nan nan nan nan nan nan nan nan nan nan nan nan nan nan nan nan nan nan nan nan nan nan nan nan nan nan nan nan nan nan nan nan nan nan nan nan nan nan nan nan nan nan nan nan nan nan 37 nan nan nan nan 37 36 36 37 nan nan 37 37 39 40 43 45 48 49 48 46 44 43 39 33 29 27 30 30 28 28 29 29 nan nan nan nan nan nan
nan nan nan nan nan nan nan nan nan nan nan nan nan nan nan nan nan nan nan nan nan nan nan nan nan nan nan nan nan nan nan nan nan nan nan nan nan nan nan nan nan nan nan nan nan nan nan nan nan nan nan nan nan 36 34 35 37 36 37 37 37 38 38 39 41 43 43 42 42 38 34 31 28 27 21 19 24 23 25 28 30 30 nan nan nan nan nan
nan nan nan nan nan nan nan nan nan nan nan nan nan nan nan nan nan nan nan nan nan nan nan nan nan nan nan nan nan nan nan nan nan nan nan nan nan nan nan nan nan nan nan nan nan nan nan nan nan nan nan nan 36 38 nan 36 35 35 35 36 38 39 38 37 38 39 39 37 34 33 nan 32 31 27 23 19 25 28 29 30 31 32 33 nan nan nan nan
nan nan nan nan nan nan nan nan nan nan nan nan nan nan nan nan nan nan nan nan nan nan 27 27 31 nan nan nan nan nan nan nan nan nan nan nan nan nan nan nan nan nan nan nan nan nan nan nan nan nan nan 37 nan 42 40 34 35 37 36 36 36 35 34 34 33 33 33 32 31 32 nan nan nan nan nan nan nan nan 35 34 35 nan nan nan nan nan nan
nan nan nan nan nan nan nan nan nan nan nan nan nan nan nan nan nan nan nan nan nan nan nan nan nan nan nan nan nan nan nan nan nan nan nan nan nan nan nan 35 34 37 41 nan nan nan nan nan nan nan 38 38 39 43 40 35 34 35 35 35 35 33 31 31 31 31 30 30 28 28 nan nan nan nan nan nan nan nan nan nan nan nan nan nan nan nan nan
nan nan nan nan nan nan nan nan nan nan nan nan nan nan nan nan nan nan nan nan nan nan nan nan nan nan nan nan nan nan nan nan nan nan nan nan nan nan nan 26 26 29 33 29 nan nan nan nan nan 35 39 40 43 nan nan nan nan nan nan 32 32 33 28 27 29 30 32 33 31 28 nan nan nan nan nan nan nan nan nan nan nan nan nan nan nan nan nan
nan nan nan nan nan nan nan nan nan nan nan nan nan nan nan nan nan nan nan nan nan nan nan nan nan nan nan nan nan nan nan nan nan nan nan nan nan nan nan nan nan nan nan 29 nan nan nan 29 nan 36 34 36 38 nan nan nan nan nan nan nan nan nan nan nan 27 nan 29 29 29 nan nan nan 34 nan nan nan nan nan nan nan nan nan nan nan nan nan nan
nan nan nan nan nan nan nan nan nan nan nan nan nan nan nan nan nan nan nan nan nan nan nan nan nan nan nan nan nan nan nan nan nan nan nan nan nan nan nan 26 nan nan nan nan nan 28 nan 37 37 35 36 37 36 nan nan nan nan nan nan nan nan nan nan nan nan nan nan nan nan nan nan nan nan nan nan nan nan nan nan nan nan nan nan nan nan nan nan
nan nan nan nan nan nan nan nan nan nan nan nan nan nan nan nan nan nan nan nan nan nan nan nan nan nan nan nan nan nan nan nan nan nan nan nan nan nan nan nan nan nan nan nan nan nan nan nan nan 38 nan nan nan nan nan nan nan nan nan nan nan nan nan nan nan nan nan nan nan nan nan nan nan nan nan nan nan nan nan nan nan nan nan nan nan nan nan
nan nan nan nan nan nan nan nan nan nan nan nan nan nan nan nan nan nan nan nan nan nan nan nan nan nan nan nan nan nan nan nan nan nan nan nan nan nan nan nan nan nan nan nan nan nan nan nan nan nan nan nan nan nan nan nan nan nan nan nan nan nan nan nan nan nan nan nan nan nan nan nan nan nan nan nan nan nan nan nan nan nan nan nan nan nan nan
nan nan nan nan nan nan nan nan nan nan nan nan nan nan nan nan nan nan nan nan nan nan nan nan nan nan nan nan nan nan nan nan nan nan nan nan nan nan nan nan nan nan nan nan nan nan nan nan nan nan nan nan nan nan nan nan nan nan nan nan nan nan nan nan nan nan nan nan nan nan nan nan nan nan nan nan nan nan nan nan nan nan nan nan nan nan nan
nan nan nan nan nan nan nan nan nan nan nan nan nan nan nan nan nan nan nan nan nan nan nan nan nan nan nan nan nan nan nan nan nan nan nan nan nan nan nan nan nan nan nan nan nan nan nan nan nan nan nan nan nan nan nan nan nan nan nan nan nan nan nan nan nan nan nan nan nan nan nan nan nan nan nan nan nan nan nan nan nan nan nan nan nan nan nan
nan nan nan nan nan nan nan nan nan nan nan nan nan nan nan nan nan nan nan nan nan nan nan nan nan nan nan nan nan nan nan nan nan nan nan nan nan nan nan nan nan nan nan nan nan nan nan nan nan nan nan nan nan nan nan nan nan nan nan nan nan nan nan nan nan nan nan nan nan nan nan nan nan nan nan nan nan nan nan nan nan nan nan nan nan nan nan
nan nan nan nan nan nan nan nan nan nan nan nan nan nan nan nan nan nan nan nan nan nan nan nan nan nan nan nan nan nan nan nan nan nan nan nan nan nan nan nan nan nan nan nan nan nan nan nan nan nan nan nan nan nan nan nan nan nan nan nan nan nan nan nan nan nan nan nan nan nan nan nan nan nan nan nan nan nan nan nan nan nan nan nan nan nan nan
Wind_Direction
nan nan nan nan nan nan nan nan nan nan nan nan nan nan nan nan nan nan nan nan nan nan nan nan nan nan nan nan nan nan nan nan nan nan 271 280 292 294 296 296 285 264 255 260 267 271 277 278 279 286 287 289 288 286 285 286 287 292 291 292 299 305 305 306 310 309 305 304 300 295 291 289 293 292 274 257 251 252 254 260 268 309 319 325 328 329 325
nan nan nan nan nan nan nan nan nan nan nan nan nan nan nan nan nan nan nan nan nan nan nan nan nan nan nan nan nan 230 nan nan nan 270 271 286 300 302 299 297 291 276 267 265 267 270 271 274 276 273 271 277 289 295 292 287 289 291 287 292 300 310 319 317 300 292 293 292 296 296 297 301 298 279 247 248 256 259 253 252 283 306 315 321 327 327 324
nan nan nan nan nan nan nan nan nan nan nan nan nan nan nan nan nan nan nan nan nan nan nan nan nan nan nan nan nan nan 242 242 260 262 265 272 282 291 295 292 290 278 265 265 268 268 269 275 279 275 269 272 280 292 289 284 285 285 285 291 299 309 321 313 295 287 283 286 290 298 303 298 285 268 253 248 255 255 246 256 298 308 311 318 322 320 323
nan nan nan nan nan nan nan nan nan nan nan nan nan nan nan nan nan nan nan nan nan nan nan nan nan nan nan nan nan nan 244 244 247 257 265 278 284 284 282 275 270 265 259 256 259 263 266 271 277 276 272 272 277 286 287 284 285 283 285 292 300 305 310 301 296 294 287 283 288 296 297 300 290 268 251 249 253 250 247 275 294 296 305 315 316 315 316
nan nan nan nan nan nan nan nan nan nan nan nan nan nan nan nan nan nan nan nan nan nan nan nan nan nan nan nan nan nan nan 245 252 254 257 258 261 268 267 264 264 262 257 255 256 261 265 268 276 287 289 283 285 291 293 289 277 278 285 290 295 298 296 295 298 296 288 285 288 290 297 298 285 268 257 250 252 248 256 277 285 292 302 306 311 313 316
nan nan nan nan nan nan nan nan nan nan nan nan nan nan nan nan nan nan nan nan nan nan nan nan nan nan nan nan nan nan 233 246 241 235 239 252 259 260 267 274 273 265 260 254 256 268 274 278 285 288 285 287 289 292 295 287 280 279 281 283 285 288 289 292 295 292 289 288 287 290 290 287 282 277 267 259 251 245 250 267 282 292 299 309 311 315 318
nan nan nan nan nan nan nan nan nan nan nan nan nan 223 221 218 nan nan nan nan nan nan nan nan nan nan 216 215 211 211 214 215 224 242 245 239 238 244 253 254 259 269 272 268 266 264 265 269 270 271 274 277 278 278 281 284 284 283 281 280 278 278 282 286 287 287 288 289 289 287 285 284 284 282 275 260 252 247 255 274 287 296 304 310 314 315 317
nan nan nan nan nan nan nan nan nan nan nan nan 226 218 216 217 217 nan nan nan nan nan nan nan nan nan 227 219 213 209 211 221 225 221 224 237 247 248 246 256 266 265 265 268 265 262 262 265 267 272 277 280 279 278 279 282 281 280 280 278 275 273 276 281 286 287 287 287 286 283 284 284 284 282 275 268 262 256 261 271 278 286 296 307 313 314 318
nan nan nan nan nan nan nan nan nan nan nan nan 223 224 220 219 218 225 235 231 221 216 212 nan nan nan 231 223 213 209 212 214 218 224 226 225 230 237 241 241 235 238 245 250 256 259 261 264 266 269 272 275 277 275 276 278 277 275 276 276 274 274 276 279 284 285 284 284 284 285 286 286 284 281 275 269 264 261 267 276 285 295 304 309 308 313 318
nan nan nan nan nan nan nan nan 206 nan nan nan 227 225 217 214 217 227 236 232 225 222 217 211 nan nan 232 226 218 215 216 216 218 222 223 223 228 235 240 237 231 233 239 243 243 246 249 252 259 261 264 268 271 271 273 274 273 272 273 274 272 272 273 275 279 281 281 281 282 285 286 287 284 276 270 266 270 268 274 282 290 297 300 303 307 313 317
nan nan nan nan nan nan nan 223 nan 208 212 219 215 218 215 212 218 223 231 234 228 230 227 216 217 nan 228 231 229 224 220 220 221 223 226 229 230 232 237 nan nan 238 236 238 243 248 249 251 255 257 259 262 264 265 268 269 269 270 273 274 272 271 272 273 273 275 278 279 280 283 286 285 277 273 270 270 268 269 274 280 287 288 294 303 305 309 315
nan nan nan nan nan 224 222 222 nan 218 210 209 212 216 210 213 216 220 224 229 229 229 230 231 223 223 229 225 228 230 227 229 226 225 226 228 228 231 234 237 243 246 245 246 244 246 250 253 254 255 257 259 260 263 265 265 267 270 273 275 275 271 269 269 269 270 272 275 277 280 283 279 272 269 265 264 267 272 275 278 282 285 291 297 305 310 311
nan nan nan nan 215 219 220 218 nan nan nan nan nan 214 212 215 217 220 224 227 227 229 230 228 233 222 225 224 223 226 231 236 232 229 229 230 231 231 233 234 232 238 244 248 251 255 257 256 256 259 262 263 266 267 266 263 268 274 272 269 267 264 262 264 268 272 271 272 275 276 275 271 265 262 262 266 268 273 275 274 278 283 289 293 302 308 312
nan nan nan nan 213 216 216 211 nan nan nan nan nan 210 214 221 219 220 223 226 226 229 229 230 232 231 229 229 228 228 229 234 237 237 235 231 229 232 236 237 237 237 239 244 243 244 248 255 257 257 256 260 267 269 267 267 271 274 269 261 260 260 263 267 270 271 270 266 266 265 265 260 258 260 260 263 267 272 270 274 281 283 283 289 299 302 305
188 194 nan nan 214 212 212 206 211 213 218 212 219 218 217 218 220 222 221 222 222 225 227 227 230 231 234 234 233 233 231 230 231 233 236 236 233 229 229 232 236 238 240 244 246 245 248 251 255 259 264 263 259 256 261 268 267 265 261 259 257 257 259 262 266 268 267 267 261 256 258 257 257 259 259 262 265 266 269 273 278 279 281 286 292 296 299
186 189 196 203 202 196 195 205 215 212 220 229 227 224 221 217 220 223 225 223 223 225 229 229 228 228 231 234 238 239 236 234 233 233 235 236 234 231 231 233 235 236 238 239 245 250 251 252 253 255 259 260 261 262 260 255 251 252 255 256 253 253 253 257 261 264 265 263 258 254 255 252 252 256 259 261 264 266 270 274 276 276 278 284 289 294 298
185 186 191 191 192 197 202 212 220 222 222 224 229 229 226 225 223 224 229 229 228 229 233 233 234 233 233 236 237 238 238 239 239 237 237 238 237 236 235 234 235 239 238 239 238 237 239 242 248 253 256 257 258 261 258 260 260 259 258 257 256 253 252 252 257 261 262 259 254 251 250 251 250 252 256 260 262 262 266 267 270 274 280 284 286 290 295
178 182 188 188 195 202 208 210 215 225 226 225 229 231 228 222 225 227 232 232 232 231 232 239 237 237 238 239 238 239 240 240 240 241 242 242 241 241 242 241 240 244 247 247 246 244 242 239 240 241 245 251 259 257 255 256 258 259 261 259 255 254 253 254 259 262 260 253 250 247 246 244 246 249 255 258 260 261 263 265 269 275 279 282 286 290 294
186 186 188 191 197 203 213 218 216 218 221 223 228 231 230 231 232 235 235 237 238 237 238 241 242 240 241 242 241 240 240 238 238 239 240 242 244 246 246 246 247 249 252 254 254 254 252 250 249 248 250 249 249 249 251 254 258 261 262 262 262 261 259 257 260 259 253 245 243 241 239 238 239 243 248 253 258 261 264 267 271 275 280 284 286 289 291
nan 188 192 190 197 207 214 219 219 217 218 224 228 231 232 235 238 239 239 241 241 241 242 242 244 242 240 242 242 241 240 240 240 239 238 239 242 245 248 249 251 254 255 256 257 257 255 254 256 257 257 256 255 256 255 252 251 252 255 259 262 260 260 259 260 254 242 239 242 238 235 237 241 243 247 253 258 261 265 270 273 276 279 282 287 289 290
nan nan 192 194 199 207 210 213 214 216 215 217 228 233 235 238 241 240 239 239 241 242 243 242 245 245 242 242 243 242 242 242 241 239 239 241 243 245 245 246 249 252 254 255 257 258 257 256 257 258 260 261 260 261 259 256 259 258 254 252 256 261 261 253 246 239 230 227 231 235 234 232 231 232 239 249 255 252 250 261 274 278 277 280 284 288 291
190 nan nan nan 205 206 207 208 205 209 215 221 229 233 235 236 238 240 243 241 241 242 241 243 246 247 245 243 243 244 244 243 241 240 240 241 244 246 246 248 247 252 257 260 260 259 258 259 259 259 260 260 260 261 263 263 264 263 262 262 260 258 260 261 253 241 230 226 227 229 232 233 237 236 236 237 239 252 258 255 260 274 283 284 287 286 288
197 196 199 203 210 215 214 214 211 210 212 225 234 235 234 233 233 236 242 244 241 239 238 240 245 246 245 245 245 245 244 243 244 245 244 243 245 247 248 250 251 251 252 256 262 263 263 261 260 258 261 263 262 260 261 264 265 267 268 268 266 264 266 263 251 237 231 228 225 224 227 232 235 239 238 236 238 242 252 259 265 270 273 280 286 289 290
200 206 209 207 209 213 216 218 222 217 213 217 227 231 231 232 231 231 234 236 241 240 241 240 242 246 246 245 245 247 246 245 245 246 246 247 247 250 253 255 255 255 259 260 260 260 264 263 262 263 263 260 260 264 263 264 266 265 266 267 268 270 271 265 248 231 224 221 220 221 223 228 233 236 239 243 242 241 244 253 257 264 275 283 287 287 290
207 207 211 214 218 nan nan nan 228 225 221 221 225 226 227 229 228 228 233 233 233 240 243 242 241 243 247 247 247 248 249 247 248 250 251 250 249 249 251 251 253 256 260 260 260 262 262 263 266 268 269 269 270 273 266 263 265 265 262 263 268 270 266 252 232 219 214 212 213 216 221 228 232 237 242 246 250 249 246 248 251 254 254 255 262 269 275
219 218 214 219 224 229 233 nan 233 232 nan nan 228 225 225 228 231 234 234 233 234 235 239 242 244 242 245 247 247 248 248 247 247 249 251 251 250 249 251 254 256 259 259 256 257 261 266 271 273 272 271 273 272 262 257 256 261 260 259 263 265 254 228 208 205 206 209 213 217 221 225 230 234 238 241 245 249 252 254 255 253 252 251 252 258 266 267
224 222 225 231 234 nan 241 246 245 nan nan 233 nan 233 nan 232 235 238 237 236 236 235 237 239 242 243 244 245 248 247 250 250 248 247 250 252 253 256 258 259 258 259 257 256 258 259 262 269 273 272 275 275 264 249 251 256 247 235 231 229 219 209 210 204 206 210 216 223 228 232 236 239 244 247 248 247 249 251 254 257 260 263 263 259 256 259 271
220 222 228 235 245 246 nan nan nan nan nan nan nan nan nan nan nan nan 235 235 235 235 236 238 242 244 247 244 247 249 249 250 251 251 252 254 257 259 257 256 258 258 257 257 258 257 260 263 264 271 281 276 235 243 260 263 243 213 197 196 198 202 209 217 219 222 228 234 237 239 240 240 242 245 249 249 248 248 251 256 261 264 263 261 264 267 270
216 215 226 234 nan nan nan nan nan nan nan nan nan nan nan nan nan nan nan nan nan nan 238 239 242 245 247 247 249 252 254 255 255 254 255 257 259 259 257 256 258 258 256 254 253 253 257 262 261 259 263 264 240 238 254 259 259 252 236 227 228 230 228 227 231 233 234 237 238 240 242 244 247 250 252 253 253 256 259 261 261 261 263 265 270 271 271
219 217 224 nan nan nan nan nan nan nan nan nan nan nan nan nan nan nan nan nan nan nan nan nan nan nan nan nan nan nan 255 255 256 257 nan nan nan 260 259 258 255 252 250 247 246 249 256 261 259 254 251 249 246 243 253 263 267 266 255 247 246 245 242 240 238 236 237 239 242 246 246 248 250 253 254 256 259 263 266 268 270 269 269 270 274 279 282
222 222 nan nan nan 236 235 235 nan nan nan nan nan nan nan nan nan nan nan nan nan nan nan nan nan nan nan nan nan nan nan nan nan nan nan nan nan nan nan nan 256 254 252 251 250 250 251 252 254 250 244 243 243 245 249 256 262 264 260 254 247 247 250 249 243 242 245 245 245 245 248 251 254 257 259 261 262 263 267 270 271 271 272 275 279 283 nan
nan nan nan nan nan nan nan nan nan nan nan nan nan nan nan nan nan nan nan nan nan nan nan nan nan nan nan nan nan nan nan nan nan nan nan nan nan nan nan nan 259 256 255 257 259 257 252 249 249 249 246 244 245 246 250 255 255 252 251 252 252 251 252 252 246 247 248 247 247 249 252 255 257 259 260 260 nan nan nan nan nan 273 nan 278 280 nan nan
nan nan nan nan nan nan nan nan nan nan nan nan nan nan nan nan nan nan nan nan nan nan nan nan nan nan nan nan nan nan nan nan nan nan nan nan nan nan nan nan nan 259 259 261 265 263 255 248 246 247 246 245 245 246 247 248 248 250 249 250 248 249 249 249 251 252 251 251 250 252 254 256 nan nan nan nan 264 nan nan nan nan nan nan nan nan nan nan
nan nan nan nan nan nan nan nan nan nan nan nan nan nan nan nan nan nan nan nan nan nan nan nan nan nan nan nan nan nan nan nan nan nan nan nan nan nan nan nan nan nan nan 263 264 264 261 254 251 248 246 246 246 247 248 247 244 242 244 243 247 250 249 246 246 248 249 251 256 259 259 262 263 nan nan nan nan nan nan nan 272 nan nan nan nan nan nan
nan nan nan nan nan nan nan nan nan nan nan nan nan nan nan nan nan nan nan nan nan nan nan nan nan nan nan nan nan nan nan nan nan nan nan nan nan nan nan nan nan nan nan nan nan nan nan nan 253 253 249 249 248 249 249 249 250 249 249 251 248 248 250 248 249 252 253 255 255 258 262 265 267 266 268 270 272 273 273 273 272 nan nan nan nan nan nan
nan nan nan nan nan nan nan nan nan nan nan nan nan nan nan nan nan nan nan nan nan nan nan nan nan nan nan nan nan nan nan nan nan nan nan nan nan nan nan nan nan nan nan nan nan nan nan nan 240 244 249 248 246 246 248 249 250 251 250 249 253 255 254 255 253 253 255 259 260 263 267 270 nan 272 272 272 272 272 272 270 267 nan nan nan nan 271 272
nan nan nan nan nan nan nan nan nan nan nan nan nan nan nan nan nan nan nan nan nan nan nan nan nan nan nan nan nan nan nan nan nan nan nan nan nan nan nan nan nan nan nan nan nan nan 246 245 246 244 244 245 242 241 246 253 nan 254 251 253 255 258 259 260 258 258 257 261 266 269 273 276 277 276 275 272 270 270 269 267 266 nan nan nan nan nan nan
nan nan nan nan nan nan nan nan nan nan nan nan nan nan nan nan nan nan nan nan nan nan nan nan nan nan nan nan nan nan nan nan nan nan nan nan nan nan nan nan nan nan nan nan nan nan nan 247 246 248 248 247 246 245 242 254 259 254 255 256 260 262 263 264 264 264 265 265 265 266 267 267 269 274 275 270 269 269 267 267 267 nan nan nan nan nan nan
nan nan nan nan nan nan nan nan nan nan nan nan nan nan nan nan nan nan nan nan nan nan nan nan nan nan nan nan nan nan nan nan nan nan nan nan nan nan nan nan nan nan nan nan nan nan nan nan 250 nan nan nan nan 247 246 255 260 nan nan 259 262 264 266 267 266 266 265 265 263 265 270 271 261 242 251 268 270 268 269 273 273 nan nan nan nan nan nan
nan nan nan nan nan nan nan nan nan nan nan nan nan nan nan nan nan nan nan nan nan nan nan nan nan nan nan nan nan nan nan nan nan nan nan nan nan nan nan nan nan nan nan nan nan nan nan nan nan nan nan nan nan 256 258 262 264 262 263 265 266 266 267 268 269 269 268 267 265 262 258 253 249 250 248 264 273 270 273 276 276 277 nan nan nan nan nan
nan nan nan nan nan nan nan nan nan nan nan nan nan nan nan nan nan nan nan nan nan nan nan nan nan nan nan nan nan nan nan nan nan nan nan nan nan nan nan nan nan nan nan nan nan nan nan nan nan nan nan nan 250 254 nan 260 262 264 266 267 268 270 270 269 268 269 269 268 263 256 nan 252 252 252 249 247 265 275 281 279 277 276 277 nan nan nan nan
nan nan nan nan nan nan nan nan nan nan nan nan nan nan nan nan nan nan nan nan nan nan 242 246 253 nan nan nan nan nan nan nan nan nan nan nan nan nan nan nan nan nan nan nan nan nan nan nan nan nan nan 252 nan 251 254 262 265 266 263 263 264 264 265 264 263 261 263 262 258 252 nan nan nan nan nan nan nan nan 278 275 272 nan nan nan nan nan nan
nan nan nan nan nan nan nan nan nan nan nan nan nan nan nan nan nan nan nan nan nan nan nan nan nan nan nan nan nan nan nan nan nan nan nan nan nan nan nan 254 253 253 251 nan nan nan nan nan nan nan 250 251 253 250 253 256 257 259 258 256 255 252 252 254 251 248 247 247 247 246 nan nan nan nan nan nan nan nan nan nan nan nan nan nan nan nan nan
nan nan nan nan nan nan nan nan nan nan nan nan nan nan nan nan nan nan nan nan nan nan nan nan nan nan nan nan nan nan nan nan nan nan nan nan nan nan nan 249 251 250 250 255 nan nan nan nan nan 250 247 245 246 nan nan nan nan nan nan 253 254 252 243 238 243 248 251 248 243 240 nan nan nan nan nan nan nan nan nan nan nan nan nan nan nan nan nan
nan nan nan nan nan nan nan nan nan nan nan nan nan nan nan nan nan nan nan nan nan nan nan nan nan nan nan nan nan nan nan nan nan nan nan nan nan nan nan nan nan nan nan 245 nan nan nan 248 nan 236 239 240 242 nan nan nan nan nan nan nan nan nan nan nan 258 nan 253 255 255 nan nan nan 257 nan nan nan nan nan nan nan nan nan nan nan nan nan nan
nan nan nan nan nan nan nan nan nan nan nan nan nan nan nan nan nan nan nan nan nan nan nan nan nan nan nan nan nan nan nan nan nan nan nan nan nan nan nan 247 nan nan nan nan nan 242 nan 236 234 235 235 237 239 nan nan nan nan nan nan nan nan nan nan nan nan nan nan nan nan nan nan nan nan nan nan nan nan nan nan nan nan nan nan nan nan nan nan
nan nan nan nan nan nan nan nan nan nan nan nan nan nan nan nan nan nan nan nan nan nan nan nan nan nan nan nan nan nan nan nan nan nan nan nan nan nan nan nan nan nan nan nan nan nan nan nan nan 235 nan nan nan nan nan nan nan nan nan nan nan nan nan nan nan nan nan nan nan nan nan nan nan nan nan nan nan nan nan nan nan nan nan nan nan nan nan
nan nan nan nan nan nan nan nan nan nan nan nan nan nan nan nan nan nan nan nan nan nan nan nan nan nan nan nan nan nan nan nan nan nan nan nan nan nan nan nan nan nan nan nan nan nan nan nan nan nan nan nan nan nan nan nan nan nan nan nan nan nan nan nan nan nan nan nan nan nan nan nan nan nan nan nan nan nan nan nan nan nan nan nan nan nan nan
nan nan nan nan nan nan nan nan nan nan nan nan nan nan nan nan nan nan nan nan nan nan nan nan nan nan nan nan nan nan nan nan nan nan nan nan nan nan nan nan nan nan nan nan nan nan nan nan nan nan nan nan nan nan nan nan nan nan nan nan nan nan nan nan nan nan nan nan nan nan nan nan nan nan nan nan nan nan nan nan nan nan nan nan nan nan nan
nan nan nan nan nan nan nan nan nan nan nan nan nan nan nan nan nan nan nan nan nan nan nan nan nan nan nan nan nan nan nan nan nan nan nan nan nan nan nan nan nan nan nan nan nan nan nan nan nan nan nan nan nan nan nan nan nan nan nan nan nan nan nan nan nan nan nan nan nan nan nan nan nan nan nan nan nan nan nan nan nan nan nan nan nan nan nan
nan nan nan nan nan nan nan nan nan nan nan nan nan nan nan nan nan nan nan nan nan nan nan nan nan nan nan nan nan nan nan nan nan nan nan nan nan nan nan nan nan nan nan nan nan nan nan nan nan nan nan nan nan nan nan nan nan nan nan nan nan nan nan nan nan nan nan nan nan nan nan nan nan nan nan nan nan nan nan nan nan nan nan nan nan nan nan
nan nan nan nan nan nan nan nan nan nan nan nan nan nan nan nan nan nan nan nan nan nan nan nan nan nan nan nan nan nan nan nan nan nan nan nan nan nan nan nan nan nan nan nan nan nan nan nan nan nan nan nan nan nan nan nan nan nan nan nan nan nan nan nan nan nan nan nan nan nan nan nan nan nan nan nan nan nan nan nan nan nan nan nan nan nan nan